Accueil
METAR-TAF:

METAR-TAF

Aéroports :

Ontario, Oregon, États-Unis

Ontario Municipal Airport

latitude: 44-01-10N, longitude: 117-00-35W, altitude: 667 m

Observation

Le bulletin a été fait il y a 1 heure et 3 minutes, à 14:53 UTC
Vent 4 kt de ouest/sud-ouest
Température -13°C
Humidité 72%
Pression 1024 hPa
Visibilité: 16.1 km
Ciel clair

METAR: KONO 201453Z AUTO 25004KT 10SM CLR M13/M17 A3023 RMK AO2 SLP275 T11281172 51024

Heure: 08:56 (15:56 UTC)


TAF: absent

Observations et prévisions météorologiques de plus de 4000 aéroports (messages METAR et TAF).

Les stations disponibles sont représentées par des disques jaunes et rouges sur la carte.

Passer la souris dessus pour voir le nom de la station.

Cliquer dessus pour voir les observations et prévisions météorologiques.

Pour changer de carte: cliquez sur les boutons verts avec une croix noire pour zoomer, sur le bouton vert avec un tiret pour effectuer un zoom arrière, ou sur les flèches vertes pour les cartes adjacentes.


METAR-TAF: